Weather in Khormaly

Russia / Chuvash Republic     55˚17′50″N   47˚15′34″E
temp.,
°C
wind,
m/s
gust,
m/s
humid.,
%
clouds,
%
prec.,
mm/h
press.,
hPa
HPBL,
m
18 january, mon
mon1800:00−26˚wnw119991 0.0 101819
03:00−27˚wnw019987 0.0 101919
06:00−27˚ssw119864 0.0 102019
09:00−26˚ese119873 0.0 102119
12:00−21˚ese119363 0.0 1021148
15:00−23˚e129675 0.0 102024
18:00−24˚ese1296100 0.0 102020
21:00−23˚e1196100 0.0 102022
19 january, tue
tue1900:00−21˚ene1295100 0.0 101990
03:00−21˚ne1296100 0.0 1018123
06:00−21˚ne2396100 0.0 1017149
09:00−20˚ne2396100 0.0 1017141
12:00−18˚nne2295100 0.2 1016238
15:00−18˚n3496100 0.5 1015249
18:00−20˚nnw129896 0.1 101524
21:00−20˚nw229996 0.2 101556
20 january, wed
wed2000:00−19˚wnw2498100 0.2 1015163
03:00−19˚wnw3597100 0.6 1014242
06:00−19˚wnw3597100 0.6 1014274
09:00−18˚wnw3696100 1.0 1015262
12:00−17˚wnw3694100 0.1 1015321
15:00−16˚w3694100 0.1 1016342
18:00−16˚w4995100 0.1 1017295
21:00−16˚w489595 0.2 1018259
21 january, thu
thu2100:00−16˚w489593 0.1 1019258
03:00−17˚w499592 0.2 1020245
06:00−17˚w499594 0.1 1020247
09:00−17˚w499595 0.1 1021251
12:00−15˚wsw5994100 0.0 1021277
15:00−14˚sw51094100 0.0 1020282
18:00−13˚sw61388100 0.0 1018347
21:00−12˚sw71686100 0.1 1014472
22 january, fri
fri2200:00−11˚sw81792100 1.9 1010714
03:00−9˚wsw81792100 2.9 1008698
06:00−6˚wsw81793100 1.0 1005783
09:00w81596100 2.4 1004865
12:00+1˚w81498100 1.1 1005829
15:00+1˚w71498100 1.6 1007753
18:00nw4998100 1.0 1010414
21:00−5˚nne2497100 2.0 1012119